Visibility
12.0 15.0 13.0 6.0 14.6 8.7 4.3 11.0 0.0 14.2 15.0 0.0 0.3 0.1 7.0 15.0 15.0 15.0 15.0 15.0 15.0 15.0 15.0 15.0 15.0 15.0 15.0 15.0 15.0 15.0 15.0 15.0 15.0 15.0 15.0 15.0 15.0 15.0 15.0 15.0 15.0 15.0 15.0 15.0
11.3 11.5 9.3 7.3 7.8 8.9 14.7 3.5 0.4 10.0 8.8 0.0 0.0 4.5 15.0 15.0 15.0 15.0 15.0 15.0 15.0 15.0 15.0 15.0 15.0 15.0 15.0 15.0 15.0 15.0 15.0 15.0 14.8 13.5 15.0 15.0 15.0 15.0 15.0 15.0 15.0 15.0 15.0 15.0
12.8 5.6 7.2 11.2 3.9 15.0 15.0 0.1 0.0 0.0 0.1 4.5 0.1 3.4 15.0 9.0 15.0 15.0 15.0 15.0 15.0 15.0 15.0 15.0 15.0 15.0 15.0 15.0 15.0 15.0 15.0 15.0 15.0 15.0 15.0 15.0 15.0 15.0 15.0 15.0 15.0 15.0 15.0 15.0
4.2 9.0 12.2 12.7 6.3 15.0 15.0 0.1 0.0 2.6 0.0 0.2 0.1 3.6 15.0 14.6 7.9 8.8 15.0 15.0 15.0 15.0 15.0 15.0 15.0 15.0 15.0 15.0 15.0 15.0 15.0 15.0 15.0 15.0 15.0 15.0 15.0 15.0 15.0 15.0 15.0 15.0 15.0 15.0
7.7 13.9 8.8 2.2 9.4 15.0 15.0 0.0 0.0 1.0 1.3 11.0 0.1 0.2 15.0 15.0 12.3 15.0 15.0 15.0 15.0 15.0 15.0 15.0 15.0 15.0 15.0 15.0 15.0 15.0 15.0 14.9 15.0 15.0 15.0 15.0 15.0 15.0 15.0 15.0 15.0 15.0 15.0 15.0
13.6 7.2 3.5 4.3 8.4 15.0 13.8 13.6 12.4 12.0 13.1 4.6 0.1 0.1 15.0 15.0 15.0 15.0 15.0 15.0 15.0 15.0 15.0 15.0 15.0 15.0 15.0 15.0 15.0 15.0 15.0 15.0 15.0 11.0 15.0 13.5 10.8 15.0 15.0 15.0 15.0 15.0 15.0 15.0
3.8 5.2 7.4 9.1 13.4 15.0 15.0 15.0 15.0 2.6 0.2 0.2 8.5 11.7 15.0 15.0 15.0 15.0 15.0 15.0 13.0 1.0 12.9 15.0 10.0 12.8 14.4 14.0 14.0 15.0 15.0 10.5 3.1 0.0 0.1 0.0 15.0 15.0 15.0 15.0 15.0 15.0 15.0 15.0
6.8 9.4 12.1 12.6 15.0 15.0 15.0 15.0 15.0 7.2 0.0 0.1 15.0 15.0 15.0 15.0 15.0 15.0 15.0 9.1 10.4 14.3 14.4 0.1 0.0 1.2 0.3 0.2 4.1 9.3 15.0 8.5 0.0 0.0 0.1 14.0 15.0 15.0 15.0 15.0 15.0 15.0 15.0 15.0
5.0 4.3 3.7 11.8 15.0 15.0 15.0 15.0 15.0 15.0 0.0 0.3 15.0 15.0 15.0 15.0 15.0 0.2 0.1 3.7 6.1 5.9 4.8 0.6 0.1 0.1 0.1 0.0 0.0 4.1 4.8 3.9 0.9 0.0 0.1 0.2 15.0 15.0 15.0 15.0 15.0 15.0 15.0 15.0
11.2 2.5 7.0 11.3 15.0 10.5 15.0 0.4 15.0 15.0 15.0 2.7 15.0 12.9 15.0 15.0 4.8 0.4 0.1 0.1 1.9 2.2 0.2 0.1 0.1 0.1 9.5 0.0 0.0 0.0 0.0 0.0 0.0 0.1 0.1 8.8 15.0 15.0 15.0 15.0 15.0 15.0 15.0 15.0
15.0 14.1 4.5 2.5 9.5 7.8 12.6 0.1 15.0 15.0 0.1 0.0 2.9 11.1 1.4 12.4 6.8 0.1 0.1 0.9 0.2 0.1 0.0 0.0 0.0 0.0 0.0 12.6 2.7 0.0 0.9 0.6 0.0 0.1 0.1 5.0 15.0 15.0 15.0 15.0 15.0 15.0 15.0 15.0
10.3 15.0 11.2 7.8 2.4 3.2 14.7 0.0 15.0 15.0 2.8 0.0 0.3 11.1 13.4 0.1 14.8 0.5 1.6 15.0 1.2 13.4 0.1 0.1 0.0 0.0 2.7 15.0 0.1 15.0 0.2 14.7 3.0 13.5 13.9 15.0 15.0 15.0 15.0 15.0 15.0 15.0 15.0 15.0
10.0 15.0 15.0 15.0 4.9 3.2 11.9 4.3 7.8 15.0 0.1 0.1 1.1 0.1 15.0 4.3 15.0 15.0 0.3 0.5 14.1 1.2 15.0 7.6 0.1 0.4 12.9 1.7 7.5 15.0 14.6 14.6 15.0 14.9 15.0 15.0 15.0 15.0 15.0 15.0 15.0 15.0 15.0 15.0
14.6 9.1 14.6 4.0 3.9 4.9 12.8 15.0 15.0 15.0 0.1 7.2 0.1 8.4 6.7 10.8 3.0 11.9 15.0 15.0 15.0 15.0 14.2 0.1 0.0 1.4 8.3 3.7 15.0 15.0 10.5 15.0 15.0 15.0 15.0 15.0 15.0 15.0 15.0 15.0 15.0 15.0 15.0 15.0
12.1 15.0 7.8 14.3 8.5 6.1 14.7 14.8 5.6 15.0 10.8 0.0 0.0 5.6 7.8 15.0 15.0 8.5 10.0 14.9 13.0 3.3 0.1 0.0 0.0 0.1 4.1 9.7 15.0 15.0 15.0 15.0 15.0 15.0 15.0 15.0 15.0 15.0 15.0 15.0 15.0 15.0 15.0 15.0
8.4 11.7 14.9 10.8 5.0 6.6 5.0 0.4 7.0 5.2 14.7 10.1 0.2 0.0 0.1 3.9 2.6 7.7 14.4 13.2 6.6 0.1 0.0 0.0 0.0 10.0 1.9 2.3 13.7 15.0 15.0 15.0 15.0 15.0 15.0 15.0 15.0 15.0 15.0 15.0 15.0 15.0 15.0 15.0
15.0 6.3 8.0 7.2 10.3 4.6 2.3 5.1 15.0 15.0 4.9 0.4 0.1 1.0 0.0 3.5 3.4 0.4 0.1 4.0 0.1 0.0 0.0 0.1 15.0 14.3 12.2 4.1 15.0 15.0 15.0 15.0 15.0 15.0 15.0 15.0 15.0 15.0 15.0 15.0 15.0 15.0 15.0 15.0
15.0 15.0 15.0 9.0 12.7 8.4 6.6 1.7 12.7 15.0 1.4 0.1 0.1 0.1 0.0 0.2 0.0 0.0 0.4 0.0 0.0 0.1 0.1 2.7 1.7 7.4 5.3 5.5 15.0 15.0 15.0 15.0 15.0 15.0 15.0 15.0 15.0 15.0 15.0 15.0 15.0 15.0 15.0 15.0
10.7 15.0 15.0 15.0 3.5 0.0 0.1 8.7 10.0 10.6 0.5 0.1 0.3 1.8 0.1 0.1 0.0 0.0 0.1 10.1 0.2 14.1 7.4 15.0 13.1 11.4 15.0 15.0 15.0 15.0 15.0 15.0 15.0 15.0 15.0 15.0 15.0 15.0 15.0 15.0 15.0 15.0 15.0 15.0
5.0 8.9 2.5 0.1 0.0 6.9 1.1 0.1 0.0 0.0 0.0 0.0 0.8 0.8 0.0 0.9 0.3 0.1 0.4 1.3 2.0 3.2 15.0 15.0 15.0 15.0 15.0 15.0 15.0 15.0 15.0 15.0 15.0 15.0 15.0 15.0 15.0 15.0 15.0 15.0 15.0 15.0 15.0 15.0
15.0 15.0 3.5 10.3 9.9 15.0 6.0 0.1 0.1 0.1 0.1 0.1 0.2 2.1 0.2 4.3 1.0 0.3 15.0 15.0 15.0 13.0 15.0 15.0 15.0 15.0 15.0 15.0 15.0 15.0 15.0 15.0 15.0 15.0 15.0 15.0 15.0 15.0 15.0 15.0 15.0 15.0 15.0 15.0
15.0 15.0 15.0 15.0 15.0 15.0 2.1 0.1 0.3 6.7 0.4 0.0 0.1 0.1 0.3 0.2 13.8 0.9 1.7 2.4 4.4 3.7 15.0 7.9 14.1 15.0 15.0 15.0 15.0 15.0 15.0 15.0 15.0 15.0 15.0 15.0 15.0 15.0 15.0 15.0 15.0 15.0 15.0 15.0
15.0 15.0 15.0 4.6 11.7 15.0 13.6 3.2 15.0 1.7 0.8 0.0 0.0 0.1 0.3 13.3 11.3 13.4 5.7 13.0 15.0 15.0 15.0 15.0 15.0 15.0 15.0 15.0 15.0 15.0 15.0 15.0 15.0 15.0 15.0 15.0 15.0 15.0 15.0 15.0 15.0 15.0 15.0 15.0
15.0 15.0 15.0 15.0 14.4 15.0 15.0 15.0 15.0 7.4 15.0 0.1 11.7 2.4 15.0 15.0 15.0 15.0 15.0 15.0 15.0 15.0 15.0 15.0 15.0 15.0 15.0 15.0 15.0 15.0 15.0 15.0 15.0 15.0 15.0 15.0 15.0 15.0 13.4 14.7 15.0 15.0 15.0 15.0
15.0 15.0 15.0 3.6 6.0 15.0 15.0 15.0 14.5 15.0 15.0 12.6 15.0 10.1 15.0 15.0 15.0 15.0 15.0 15.0 15.0 15.0 15.0 15.0 15.0 15.0 15.0 15.0 15.0 15.0 15.0 15.0 15.0 15.0 15.0 15.0 15.0 0.2 0.1 1.6 0.2 4.9 0.5 0.2
15.0 15.0 15.0 15.0 12.6 10.8 15.0 15.0 15.0 15.0 15.0 15.0 15.0 15.0 15.0 15.0 15.0 15.0 15.0 15.0 15.0 15.0 15.0 15.0 15.0 15.0 15.0 15.0 15.0 15.0 15.0 15.0 15.0 15.0 15.0 6.6 11.7 1.8 0.3 4.6 5.4 4.0 4.6 2.2
15.0 15.0 15.0 11.3 15.0 12.4 15.0 15.0 15.0 15.0 15.0 15.0 15.0 15.0 15.0 15.0 15.0 15.0 15.0 15.0 15.0 15.0 15.0 15.0 15.0 15.0 15.0 15.0 15.0 15.0 12.0 13.8 13.8 0.6 0.1 0.1 0.5 0.5 13.7 4.3 7.7 0.4 0.1 10.1